Regional Weather Roundup
Issued by NWS

Home | Current Version | Previous Version | Graphics & Text | Print | Product List | Glossary Off
Versions: 1 2 3 4 5 6 7 8 9 10 11 12 13 14 15 16 17 18 19 20 21 22 23 24 25 26 27 28 29 30 31 32 33 34 35 36 37 38 39 40 41 42 43 44 45 46 47 48 49 50

000
ASUS43 KDMX 021107
RWRIA

WEATHER ROUNDUP FOR IOWA
NATIONAL WEATHER SERVICE DES MOINES IA
600 AM CDT SUN AUG 02 2015

NOTE: "FAIR" INDICATES FEW OR NO CLOUDS BELOW 12,000 FEET WITH NO
SIGNIFICANT WEATHER AND/OR OBSTRUCTIONS TO VISIBILITY.

* - THESE STATIONS ARE NOT NWS STATIONS...THUS NOT UNDER NWS
QUALITY CONTROL.  THEY ALSO DO NOT REPORT WEATHER SUCH
AS PRECIPITATION OR FOG.

IAZ001>003-012>014-020>022-031>034-043>046-021200-
   NORTHWEST IOWA

CITY           SKY/WX    TMP DP  RH WIND       PRES   REMARKS
CARROLL *        N/A    N/A N/A N/A SW14      29.81F
CHEROKEE *     CLEAR     68  68 100 SW6       29.78F
DENISON *      CLEAR     70  68  94 SW8       29.80F
LE MARS *      CLEAR     68  68 100 S6        29.80R
ORANGE CITY *  CLEAR     66  64  94 SW8       29.79S
SHELDON *      CLEAR     66  64  94 SW9       29.78R
SIOUX CITY     CLEAR     69  64  84 S6        29.80S
SPENCER        CLEAR     70  66  87 SW9       29.78S
STORM LAKE *   CLEAR     68  64  88 S8        29.81S
$$

IAZ055>058-069>071-079>083-090>094-021200-
   SOUTHWEST IOWA

CITY           SKY/WX    TMP DP  RH WIND       PRES   REMARKS
ATLANTIC *     MOCLDY    70  68  94 SW13G22   29.87F
AUDUBON *      LGT RAIN  70  66  88 SE3       29.87S
CLARINDA *     CLEAR     68  66  94 S5        29.90R
COUNCIL BLFS *   N/A     70  68  94 VRB6      29.86F
CRESTON *      PTCLDY    68  64  88 S8        29.89F
HARLAN  *      PTCLDY    68  68 100 S7        29.87F
LAMONI         MOCLDY    73  63  70 S7G23     29.91R
RED OAK *      MOCLDY    68  66  94 CALM      29.88S
SHENANDOAH *     N/A     70  68  94 CALM      29.88R
$$

IAZ047>049-059>061-072>074-084-021200-
   CENTRAL IOWA

CITY           SKY/WX    TMP DP  RH WIND       PRES   REMARKS
AMES           MOCLDY    68  63  84 SW7       29.82F
ANKENY *       CLEAR     73  63  68 SW9G15    29.83S
CHARITON *     MOCLDY    70  63  78 SW9G17    29.87R
DES MOINES     CLOUDY    74  62  66 SW10      29.83S
GRINNELL*      PTCLDY    70  63  78 SW7       29.85R
KNOXVILLE *    CLEAR     70  63  78 SW9       29.84S
MARSHALLTOWN   CLEAR     69  63  81 SW9       29.82S
PELLA *        MOCLDY    73  66  78 SW6       29.86R
PERRY *          N/A     72  64  78 SW9       29.83F
$$

IAZ004>006-015-016-023>025-035-036-021200-
   NORTH CENTRAL IOWA

CITY           SKY/WX    TMP DP  RH WIND       PRES   REMARKS
ALGONA *       CLEAR     68  66  94 S13       29.78F
CLARION *      CLEAR     66  64  94 SW10      29.81S
ESTHERVILLE    CLEAR     69  67  93 SW12      29.75F
FORT DODGE *   PTCLDY    66  63  88 SW9       29.82S
MASON CITY     CLEAR     71  65  81 SW21G26   29.79F
FOREST CITY *  CLEAR     68  66  94 SW9       29.78F
IOWA FALLS *     N/A     68  63  83 SW9       29.82S
$$

IAZ007>011-017>019-026>030-037>042-050>054-066-021200-
   NORTHEAST IOWA

CITY           SKY/WX    TMP DP  RH WIND       PRES   REMARKS
CEDAR RAPIDS   CLEAR     68  68 100 S9        29.83S
CHARLES CITY * PTCLDY    70  68  94 SW8       29.79S
CLINTON *      CLEAR     66  64  94 S7        29.87S
DECORAH *      MOCLDY    72  68  88 VRB7G17   29.78S
DUBUQUE        CLEAR     69  67  93 SW9       29.82S
MONTICELLO *   CLEAR     66  66 100 S6        29.82S
OELWEIN *        N/A     70  66  88 SW7       29.81S
WATERLOO       PTCLDY    71  65  81 SW9       29.79S
$$

IAZ064-065-067-068-078-021200-
   EAST CENTRAL IOWA

CITY           SKY/WX    TMP DP  RH WIND       PRES   REMARKS
DAVENPORT      CLEAR     69  67  93 S7        29.86S
IOWA CITY      CLEAR     68  66  93 S7        29.86R
MT. PLEASANT * PTCLDY    68  63  83 S6        29.89S
MUSCATINE *    CLEAR     68  66  94 S7        29.87R
QUAD CITIES    CLEAR     70  66  87 SW3       29.85F
$$

IAZ062-063-075>077-085>089-095>099-021200-
   SOUTHEAST IOWA

CITY           SKY/WX    TMP DP  RH WIND       PRES   REMARKS
BURLINGTON     PTCLDY    67  65  93 SW6       29.89S
FAIRFIELD *    CLEAR     66  63  88 S5        29.87S
FORT MADISON * CLEAR     68  63  83 S7        29.90S
KEOKUK *       PTCLDY    68  63  83 SW7       29.89S
OSKALOOSA *      N/A     66  64  94 S6        29.87R
CENTERVILLE *  CLEAR     66  63  88 S8        29.91R
OTTUMWA        PTCLDY    67  63  87 SW10      29.86R
WASHINGTON *   CLEAR     66  64  94 SW8       29.88S
$$

ABBREVIATIONS USED IN REMARKS
   TC - TEMPERATURES IN CELSIUS
  WCI - WIND CHILL INDEX
   HX - HEAT INDEX
  VSB - VISIBILITY
$$




USA.gov is the U.S. government's official web portal to all federal, state and local government web resources and services.